Volver al catálogo

SZ-22 MODULE

ActivoCienciaVLEO
NORAD 69328·PAYLOAD·🇨🇳 China

Lanzado Nov 25, 2025 desde Jiuquan Satellite Launch Center

Loading…

Próximos Pases (próximas 24 horas)

TLE

ActualizadoSource: Space-Track

Época: Sep 14, 2026, 09:01 UTC

1 69328U 25272C   26257.37620783  .00019026  00000-0  20257-3 0  9991
2 69328  41.4786 138.5660 0006165 341.6574  18.4043 15.63520397 17275

Sigue SZ-22 MODULE en tiempo real con AllMySat

Download on the App Store